NOAA 16 DEB

Satellite information

Favourite Embed

Satellite Type and Status

DEBRISIN ORBIT

Key statistics

Satellite NOAA 16 DEB at a glance.

Uptime

9156

Days in orbit

Revolutions

≈ 14.2

Per day

Orbit

SSO

Sun Synchronous Orbit

Inclination

98.9

Latest

Satellite identification and parameters

Extended collection of information and parameters for NOAA 16 DEB.

Object identification

Identified? True

Debris? True

Object name: NOAA 16 DEB

International designator: 2000-055EM

Object number (NORAD): 41232

Object ID (CCSDS): 41232

Country: UNITED STATES OF AMERICA (US)

Current information (Y/N): Y

RCS size: SMALL

Orbital parameters

Period: 101.287 minutes

Inclination: 98.886 deg

SMA: 7197.747 km

Apoapsis: 849.013 km

Periapsis: 790.211 km

RAAN: 356.858 deg

Eccentricy: 0.00408475

Argument of periapsis: 235.9907 deg

Mean anomaly: 123.7387 deg

Mean motion: 14.21699824 rev/day

Mean motion (dot): 0.00006322 rev/day2

B* drag term: 0.0028719158 1/REarth

Two-line elements (TLE)

Creation date: Oct. 15, 2025, 2:21 a.m.

Reference frame: TEME

Reference center: EARTH

Epoch: Oct. 14, 2025, 9:44 p.m. UTC

TLE line 0: 0 NOAA 16 DEB

TLE line 1: 1 41232U 00055EM 25287.90592608 .00006322 00000-0 28719-2 0 9997

TLE line 2: 2 41232 98.8860 356.8580 0040847 235.9907 123.7387 14.21699824505047

Live tracking on map

Real-time ground track for satellite NOAA 16 DEB.

In-orbit conjunctions

A list of the most updated potential collisions computed for object NOAA 16 DEB.

Target Orbit TCA Probability of collision Miss distance Type
COSMOS 2369 LEO 2025-06-08 08:21:54 0.0001171587 606.0 (m) PAYLOAD
SL-3 R/B LEO 2025-03-27 06:30:51 0.0001074645 992.0 (m) ROCKET BODY
CZ-6A DEB LEO 2024-12-20 07:55:57 0.0002716614 193.0 (m) DEBRIS
CZ-6A DEB SSO 2024-09-26 22:23:55 0.0001326487 810.0 (m) DEBRIS
COSMOS 2251 DEB LEO 2024-09-26 19:45:29 0.0002631656 236.0 (m) DEBRIS

Associated space launch

The NOAA K, L and M POES satellites begin the fifth generation of improved environmental monitoring in support of NOAA missions. The instrument payload has significant improvements and additions/deletions. The instrument changes have effected the spacecraft subsystems and data formats.

NOAA 16 DEB was lifted into orbit during the mission ‘Titan II SLV | NOAA 16’, on board a Titan II SLV space rocket.

The launch took place on Sept. 21, 2000, 10:22 a.m. from Space Launch Complex 4W.

For more information about the launch, click the button.

Launch to space Titan II SLV | NOAA 16
Titan II SLV | NOAA 16

Agency: N/A

Status: Launch Successful

Launch date: Sept. 21, 2000, 10:22 a.m. UTC

Rocket: Titan II SLV

Launch pad: Space Launch Complex 4W

Location: Vandenberg SFB, CA, USA

...

Latest news about this satellite

There are no fresh news available about this satellite. Check back as we update our databases every day.


Newsletter sign-up

Weekly statistics, charts and insights to help you stay on top of the space industry.